EA5AFP-10 Weather Reports


time (UTC)temp
C
wind
direction
speed
KPH
gust
KPH
rain 1hr
cm
rain 24hr
cm
rain mn
cm
humidity
%
barometer
mb
20260507123123 19 112 9.7 17.7 0.00 0.00 0.00 7 1007.7
20260507122716 19 157 9.7 16.1 0.00 0.00 0.00 7 1007.6
20260507122713 19 157 9.7 16.1 0.00 0.00 0.00 7 1007.6
20260507122558 19 157 9.7 16.1 0.00 0.00 0.00 7 1007.6
20260507122419 18 135 11.3 17.7 0.00 0.00 0.00 7 1007.6
20260507121942 18 67 9.7 14.5 0.00 0.00 0.00 7 1007.6
20260507121512 18 67 11.3 14.5 0.00 0.00 0.00 7 1007.5
20260507121046 18 90 11.3 16.1 0.00 0.00 0.00 7 1007.6
20260507120627 19 90 14.5 19.3 0.00 0.00 0.00 7 1007.6
20260507120151 19 112 12.9 17.7 0.00 0.00 0.00 7 1007.8
20260507115747 20 90 14.5 24.1 0.00 0.00 0.00 7 1007.6
20260507115701 20 90 14.5 24.1 0.00 0.00 0.00 7 1007.6
20260507115657 20 90 14.5 24.1 0.00 0.00 0.00 7 1007.6
20260507115452 20 112 14.5 17.7 0.00 0.00 0.00 7 1007.6
20260507115307 20 90 14.5 24.1 0.00 0.00 0.00 7 1007.7
20260507115008 20 67 9.7 16.1 0.00 0.00 0.00 7 1007.7
20260507114518 20 112 9.7 14.5 0.00 0.00 0.00 7 1007.9
20260507114408 19 90 9.7 19.3 0.00 0.00 0.00 7 1007.9
20260507114045 19 135 14.5 20.9 0.00 0.00 0.00 7 1008.0
20260507113552 19 112 9.7 14.5 0.00 0.00 0.00 7 1008.0
20260507113126 20 112 6.4 12.9 0.00 0.00 0.00 7 1008.1
20260507112717 19 67 6.4 9.7 0.00 0.00 0.00 7 1008.2
20260507112713 19 67 6.4 9.7 0.00 0.00 0.00 7 1008.2
20260507112559 19 67 6.4 9.7 0.00 0.00 0.00 7 1008.2
20260507112354 20 90 9.7 16.1 0.00 0.00 0.00 7 1008.1
20260507111931 20 67 11.3 16.1 0.00 0.00 0.00 7 1008.2
20260507111604 20 112 8.0 12.9 0.00 0.00 0.00 7 1008.3
20260507111516 19 90 4.8 9.7 0.00 0.00 0.00 7 1008.2
20260507111031 20 90 1.6 6.4 0.00 0.00 0.00 7 1008.3
20260507110645 20 67 11.3 16.1 0.00 0.00 0.00 7 1008.3
20260507110614 19 112 9.7 12.9 0.00 0.00 0.00 7 1008.5
20260507110149 20 90 6.4 9.7 0.00 0.00 0.00 7 1008.4
20260507105700 19 90 12.9 17.7 0.00 0.00 0.00 6 1008.4
20260507105656 19 90 12.9 17.7 0.00 0.00 0.00 6 1008.4
20260507105447 19 67 9.7 14.5 0.00 0.00 0.00 6 1008.4
20260507105307 20 112 9.7 12.9 0.00 0.00 0.00 6 1008.3
20260507105022 20 90 9.7 12.9 0.00 0.00 0.00 6 1008.3
20260507104536 20 112 9.7 12.9 0.00 0.00 0.00 6 1008.3
20260507104408 20 90 9.7 12.9 0.00 0.00 0.00 6 1008.4
20260507104117 20 135 8.0 16.1 0.00 0.00 0.00 6 1008.3
20260507103617 20 135 8.0 12.9 0.00 0.00 0.00 7 1008.5
20260507103544 19 112 8.0 14.5 0.00 0.00 0.00 7 1008.3
20260507103126 19 67 6.4 9.7 0.00 0.00 0.00 7 1008.4
20260507102717 20 90 4.8 9.7 0.00 0.00 0.00 7 1008.2
20260507102300 19 90 4.8 6.4 0.00 0.00 0.00 7 1008.3
20260507101857 19 292 0.0 3.2 0.00 0.00 0.00 7 1008.3
20260507101449 18 337 0.0 3.2 0.00 0.00 0.00 7 1008.4
20260507101353 18 315 4.8 6.4 0.00 0.00 0.00 7 1008.5
20260507100957 18 112 4.8 6.4 0.00 0.00 0.00 7 1008.4
20260507100520 19 0 0.0 0.0 0.00 0.00 0.00 7 1008.7
20260507100107 18 0 0.0 0.0 0.00 0.00 0.00 7 1008.7
20260507095700 18 90 1.6 3.2 0.00 0.00 0.00 7 1008.7
20260507095657 18 90 1.6 3.2 0.00 0.00 0.00 7 1008.7
20260507095518 18 90 1.6 3.2 0.00 0.00 0.00 7 1008.7
20260507095404 18 90 3.2 4.8 0.00 0.00 0.00 7 1008.8
20260507095022 18 112 1.6 3.2 0.00 0.00 0.00 7 1008.7
20260507094534 18 90 1.6 4.8 0.00 0.00 0.00 7 1008.9
20260507094419 18 90 3.2 4.8 0.00 0.00 0.00 7 1008.9
20260507094116 18 67 1.6 3.2 0.00 0.00 0.00 7 1008.8
20260507093616 18 315 1.6 3.2 0.00 0.00 0.00 7 1008.8
20260507093542 18 292 3.2 4.8 0.00 0.00 0.00 7 1008.8
20260507093126 18 0 0.0 0.0 0.00 0.00 0.00 7 1008.8
20260507092716 18 0 0.0 0.0 0.00 0.00 0.00 7 1008.9
20260507092714 18 0 0.0 0.0 0.00 0.00 0.00 7 1008.9
20260507092346 18 0 0.0 0.0 0.00 0.00 0.00 7 1008.9
20260507091945 18 0 0.0 3.2 0.00 0.00 0.00 7 1009.1
20260507091544 17 0 0.0 1.6 0.00 0.00 0.00 7 1008.9
20260507091104 17 112 3.2 4.8 0.00 0.00 0.00 7 1009.0
20260507090643 17 67 3.2 3.2 0.00 0.00 0.00 7 1008.9
20260507090616 17 67 4.8 6.4 0.00 0.00 0.00 7 1008.9
20260507090150 17 90 4.8 9.7 0.00 0.00 0.00 7 1008.8
20260507085657 17 90 6.4 9.7 0.00 0.00 0.00 7 1008.7
20260507085455 17 90 4.8 6.4 0.00 0.00 0.00 7 1008.7
20260507085412 17 90 4.8 6.4 0.00 0.00 0.00 7 1008.7
20260507085010 17 67 4.8 6.4 0.00 0.00 0.00 7 1008.7
20260507084518 17 67 4.8 9.7 0.00 0.00 0.00 7 1008.7
20260507084416 17 45 4.8 6.4 0.00 0.00 0.00 7 1008.7
20260507084045 17 0 1.6 3.2 0.00 0.00 0.00 7 1008.8
20260507083544 17 0 0.0 0.0 0.00 0.00 0.00 7 1008.6
20260507083126 17 292 1.6 3.2 0.00 0.00 0.00 7 1008.7
20260507082716 17 270 1.6 3.2 0.00 0.00 0.00 7 1008.4
20260507082713 17 270 1.6 3.2 0.00 0.00 0.00 7 1008.4
20260507082346 17 292 3.2 4.8 0.00 0.00 0.00 7 1008.5
20260507081455 17 315 4.8 6.4 0.00 0.00 0.00 7 1008.7
20260507080525 17 315 4.8 6.4 0.00 0.00 0.00 7 1008.6
20260507080510 17 315 4.8 6.4 0.00 0.00 0.00 7 1008.6
20260507075702 16 315 4.8 9.7 0.00 0.00 0.00 7 1008.6
20260507075442 16 315 4.8 4.8 0.00 0.00 0.00 7 1008.7
20260507075326 16 337 4.8 9.7 0.00 0.00 0.00 7 1008.7
20260507075031 16 337 4.8 9.7 0.00 0.00 0.00 7 1008.7
20260507074547 16 337 4.8 6.4 0.00 0.00 0.00 7 1008.7
20260507074127 16 315 4.8 6.4 0.00 0.00 0.00 7 1008.8
20260507073627 16 315 6.4 9.7 0.00 0.00 0.00 7 1008.7
20260507073555 16 292 8.0 9.7 0.00 0.00 0.00 7 1008.8
20260507073137 16 315 8.0 9.7 0.00 0.00 0.00 7 1008.8
20260507072725 16 292 9.7 12.9 0.00 0.00 0.00 7 1008.9
20260507072448 16 315 9.7 12.9 0.00 0.00 0.00 7 1008.7
20260507072419 16 292 8.0 9.7 0.00 0.00 0.00 7 1008.7
20260507072006 16 315 9.7 9.7 0.00 0.00 0.00 7 1008.6
20260507071523 16 292 8.0 9.7 0.00 0.00 0.00 7 1008.6
20260507071103 16 292 4.8 6.4 0.00 0.00 0.00 8 1008.5
20260507070603 15 315 4.8 6.4 0.00 0.00 0.00 8 1008.6
20260507070113 15 315 4.8 6.4 0.00 0.00 0.00 8 1008.6
20260507065704 15 315 4.8 4.8 0.00 0.00 0.00 8 1008.6
20260507065700 15 315 4.8 4.8 0.00 0.00 0.00 8 1008.6
20260507065504 15 292 4.8 6.4 0.00 0.00 0.00 8 1008.5
20260507065405 15 315 6.4 9.7 0.00 0.00 0.00 8 1008.5
20260507065039 15 315 4.8 4.8 0.00 0.00 0.00 8 1008.6
20260507064549 15 315 4.8 6.4 0.00 0.00 0.00 8 1008.5
20260507064124 15 315 3.2 3.2 0.00 0.00 0.00 8 1008.4
20260507063634 15 315 3.2 4.8 0.00 0.00 0.00 8 1008.5
20260507063205 15 292 3.2 4.8 0.00 0.00 0.00 8 1008.5
20260507062715 15 292 3.2 4.8 0.00 0.00 0.00 8 1008.5
20260507062331 15 292 3.2 4.8 0.00 0.00 0.00 8 1008.5
20260507061927 15 292 3.2 3.2 0.00 0.00 0.00 8 1008.6
20260507061458 15 0 0.0 1.6 0.00 0.00 0.00 8 1008.4
20260507061018 15 0 0.0 1.6 0.00 0.00 0.00 8 1008.4
20260507060531 14 270 0.0 1.6 0.00 0.00 0.00 8 1008.3
20260507060113 14 270 1.6 3.2 0.00 0.00 0.00 9 1008.3
20260507055704 13 292 1.6 3.2 0.00 0.00 0.00 9 1008.2
20260507055701 13 292 1.6 3.2 0.00 0.00 0.00 9 1008.2
20260507055339 13 270 3.2 4.8 0.00 0.00 0.00 9 1008.1
20260507055004 13 270 4.8 4.8 0.00 0.00 0.00 9 1008.0
20260507054511 13 270 3.2 4.8 0.00 0.00 0.00 9 1008.1
20260507054502 13 292 3.2 4.8 0.00 0.00 0.00 9 1008.0
20260507054042 13 270 3.2 3.2 0.00 0.00 0.00 9 1008.0
20260507053524 13 270 3.2 3.2 0.00 0.00 0.00 9 1008.1
20260507053119 12 292 3.2 3.2 0.00 0.00 0.00 9 1007.9
20260507052721 12 270 3.2 3.2 0.00 0.00 0.00 9 1008.0
20260507052718 12 270 3.2 3.2 0.00 0.00 0.00 9 1008.0
20260507052353 12 0 0.0 0.0 0.00 0.00 0.00 9 1008.0
20260507052244 12 0 0.0 0.0 0.00 0.00 0.00 9 1008.0
20260507051929 12 0 0.0 0.0 0.00 0.00 0.00 9 1008.0
20260507051459 12 0 0.0 0.0 0.00 0.00 0.00 9 1008.0
20260507051405 12 0 0.0 0.0 0.00 0.00 0.00 9 1007.9
20260507051019 12 292 3.2 3.2 0.00 0.00 0.00 9 1007.9
20260507050602 12 270 3.2 3.2 0.00 0.00 0.00 9 1008.1
20260507050531 12 270 3.2 3.2 0.00 0.00 0.00 9 1008.1
20260507050113 12 0 0.0 0.0 0.00 0.00 0.00 9 1008.2
20260507045702 12 315 1.6 3.2 0.00 0.00 0.00 9 1008.0
20260507045659 12 315 1.6 3.2 0.00 0.00 0.00 9 1008.0
20260507045527 12 315 1.6 3.2 0.00 0.00 0.00 9 1008.0
20260507045409 12 292 3.2 4.8 0.00 0.00 0.00 9 1008.1
20260507044944 12 270 1.6 3.2 0.00 0.00 0.00 9 1008.1
20260507044627 12 247 3.2 3.2 0.00 0.00 0.00 9 1008.1
20260507044502 12 247 3.2 3.2 0.00 0.00 0.00 9 1008.0
20260507044036 12 270 3.2 3.2 0.00 0.00 0.00 9 1007.8
20260507043711 12 270 4.8 4.8 0.00 0.00 0.00 9 1007.8
20260507043624 12 292 4.8 6.4 0.00 0.00 0.00 9 1007.9
20260507043216 12 270 4.8 4.8 0.00 0.00 0.00 9 1007.9
20260507042728 11 292 3.2 3.2 0.00 0.00 0.00 9 1008.0
20260507042724 11 292 3.2 3.2 0.00 0.00 0.00 9 1008.0
20260507042013 11 292 1.6 1.6 0.00 0.00 0.00 9 1007.9
20260507040118 11 292 1.6 3.2 0.00 0.00 0.00 9 1007.7
20260507035433 12 292 0.0 1.6 0.00 0.00 0.00 9 1007.7
20260507035020 11 270 3.2 4.8 0.00 0.00 0.00 9 1007.7
20260507034541 11 247 1.6 3.2 0.00 0.00 0.00 9 1007.6
20260507034104 11 270 3.2 4.8 0.00 0.00 0.00 9 1007.6
20260507033615 12 270 1.6 3.2 0.00 0.00 0.00 9 1007.6
20260507033544 12 247 0.0 1.6 0.00 0.00 0.00 9 1007.6
20260507033127 12 247 1.6 3.2 0.00 0.00 0.00 9 1007.7
20260507032715 11 0 0.0 0.0 0.00 0.00 0.00 9 1007.8
20260507032450 11 0 0.0 0.0 0.00 0.00 0.00 9 1007.8
20260507031954 11 292 3.2 3.2 0.00 0.00 0.00 9 1008.0
20260507031733 11 270 3.2 3.2 0.00 0.00 0.00 9 1007.9
20260507031521 11 270 3.2 4.8 0.00 0.00 0.00 9 1008.0
20260507031119 11 0 0.0 0.0 0.00 0.00 0.00 9 1007.9
20260507030734 11 292 0.0 1.6 0.00 0.00 0.00 9 1007.9
20260507030659 11 292 1.6 3.2 0.00 0.00 0.00 9 1007.9
20260507030234 11 292 1.6 3.2 0.00 0.00 0.00 9 1008.0
20260507025743 12 292 1.6 3.2 0.00 0.00 0.00 9 1008.0
20260507025740 12 292 1.6 3.2 0.00 0.00 0.00 9 1008.0
20260507025253 12 292 3.2 3.2 0.00 0.00 0.00 9 1008.1
20260507024830 12 270 1.6 3.2 0.00 0.00 0.00 9 1008.1
20260507024353 12 292 1.6 3.2 0.00 0.00 0.00 9 1007.9
20260507023907 12 292 1.6 3.2 0.00 0.00 0.00 9 1008.0
20260507023437 12 292 1.6 3.2 0.00 0.00 0.00 9 1008.2
20260507023346 12 292 1.6 3.2 0.00 0.00 0.00 9 1008.1
20260507022950 12 292 1.6 3.2 0.00 0.00 0.00 9 1008.1
20260507022946 12 292 1.6 3.2 0.00 0.00 0.00 9 1008.1
20260507022645 12 292 0.0 1.6 0.00 0.00 0.00 9 1008.1
20260507022154 12 292 1.6 3.2 0.00 0.00 0.00 9 1008.1
20260507021740 12 270 4.8 4.8 0.00 0.00 0.00 9 1008.1
20260507021334 12 270 3.2 4.8 0.00 0.00 0.00 9 1008.1
20260507020934 12 270 3.2 4.8 0.00 0.00 0.00 9 1008.2
20260507020509 12 292 3.2 4.8 0.00 0.00 0.00 9 1008.1
20260507020055 12 292 1.6 3.2 0.00 0.00 0.00 9 1008.2
20260507015801 12 292 1.6 3.2 0.00 0.00 0.00 9 1008.2
20260507015356 12 270 1.6 3.2 0.00 0.00 0.00 9 1008.3
20260507014918 12 270 3.2 4.8 0.00 0.00 0.00 9 1008.2
20260507014513 12 292 3.2 4.8 0.00 0.00 0.00 9 1008.1
20260507014506 12 292 3.2 4.8 0.00 0.00 0.00 9 1008.1
20260507014053 12 292 3.2 4.8 0.00 0.00 0.00 9 1008.1
20260507013530 12 292 3.2 3.2 0.00 0.00 0.00 9 1008.1
20260507013127 13 292 3.2 3.2 0.00 0.00 0.00 9 1008.0
20260507012727 13 270 1.6 3.2 0.00 0.00 0.00 9 1008.0
20260507012723 13 270 1.6 3.2 0.00 0.00 0.00 9 1008.0
20260507012414 13 292 3.2 3.2 0.00 0.00 0.00 9 1008.1
20260507011953 13 292 4.8 4.8 0.00 0.00 0.00 9 1008.0
20260507011524 12 292 3.2 4.8 0.00 0.00 0.00 9 1008.1
20260507011505 12 270 3.2 3.2 0.00 0.00 0.00 9 1008.1
20260507011034 12 270 4.8 4.8 0.00 0.00 0.00 9 1008.1
20260507010652 12 292 4.8 4.8 0.00 0.00 0.00 9 1008.1
20260507010615 12 292 3.2 4.8 0.00 0.00 0.00 9 1008.1
20260507010150 13 270 4.8 4.8 0.00 0.00 0.00 9 1008.1
20260507005658 13 247 3.2 4.8 0.00 0.00 0.00 9 1008.2
20260507005655 13 247 3.2 4.8 0.00 0.00 0.00 9 1008.2
20260507005411 13 292 3.2 4.8 0.00 0.00 0.00 9 1008.2
20260507005319 13 270 3.2 4.8 0.00 0.00 0.00 9 1008.1
20260507004941 13 270 4.8 4.8 0.00 0.00 0.00 9 1008.1
20260507004515 13 270 3.2 3.2 0.00 0.00 0.00 9 1008.1
20260507004452 13 270 3.2 3.2 0.00 0.00 0.00 9 1008.1
20260507004051 13 270 3.2 3.2 0.00 0.00 0.00 9 1008.2
20260507003604 13 270 3.2 4.8 0.00 0.00 0.00 9 1008.2
20260507003135 13 270 4.8 6.4 0.00 0.00 0.00 9 1008.2
20260507002711 13 270 4.8 6.4 0.00 0.00 0.00 9 1008.4
20260507002352 13 270 4.8 4.8 0.00 0.00 0.00 8 1008.3
20260507002305 13 270 4.8 4.8 0.00 0.00 0.00 8 1008.4
20260507001949 13 270 3.2 4.8 0.00 0.00 0.00 8 1008.4
20260507001457 13 292 4.8 4.8 0.00 0.00 0.00 8 1008.3
20260507001019 13 270 4.8 4.8 0.00 0.00 0.00 9 1008.3
20260507000602 13 270 4.8 4.8 0.00 0.00 0.00 9 1008.3
20260507000530 13 270 4.8 4.8 0.00 0.00 0.00 9 1008.3
20260507000114 13 270 4.8 4.8 0.00 0.00 0.00 9 1008.3
20260506235703 13 292 4.8 6.4 0.00 0.00 0.00 9 1008.4
20260506235409 13 270 3.2 4.8 0.00 0.00 0.00 8 1008.4
20260506235310 13 270 3.2 4.8 0.00 0.00 0.00 8 1008.4
20260506234934 13 270 4.8 4.8 0.00 0.00 0.00 8 1008.4
20260506234511 13 292 4.8 6.4 0.00 0.00 0.00 8 1008.4
20260506234449 13 292 3.2 4.8 0.00 0.00 0.00 8 1008.4
20260506234046 13 292 3.2 3.2 0.00 0.00 0.00 8 1008.4
20260506233616 13 292 4.8 4.8 0.00 0.00 0.00 8 1008.6
20260506233559 13 292 3.2 4.8 0.00 0.00 0.00 8 1008.6
20260506233131 13 292 1.6 3.2 0.00 0.00 0.00 8 1008.6
20260506232710 13 292 3.2 3.2 0.00 0.00 0.00 8 1008.6
20260506232707 13 292 3.2 3.2 0.00 0.00 0.00 8 1008.6
20260506232338 13 292 1.6 3.2 0.00 0.00 0.00 8 1008.8
20260506231915 13 292 4.8 4.8 0.00 0.00 0.00 8 1008.6
20260506231518 13 292 3.2 4.8 0.00 0.00 0.00 8 1008.7
20260506231445 13 292 3.2 4.8 0.00 0.00 0.00 8 1008.7
20260506231005 13 292 3.2 3.2 0.00 0.00 0.00 8 1008.5
20260506230548 13 292 1.6 1.6 0.00 0.00 0.00 8 1008.6
20260506230518 13 270 1.6 3.2 0.00 0.00 0.00 8 1008.7
20260506230059 13 270 3.2 4.8 0.00 0.00 0.00 8 1008.6
20260506225649 13 270 1.6 3.2 0.00 0.00 0.00 8 1008.7
20260506225647 13 270 1.6 3.2 0.00 0.00 0.00 8 1008.7
20260506225403 13 270 1.6 3.2 0.00 0.00 0.00 8 1008.8
20260506225246 13 292 3.2 3.2 0.00 0.00 0.00 8 1008.8
20260506224915 13 270 3.2 4.8 0.00 0.00 0.00 8 1008.8
20260506224457 13 292 3.2 4.8 0.00 0.00 0.00 8 1008.9
20260506224027 13 292 4.8 4.8 0.00 0.00 0.00 9 1008.9
20260506223553 13 270 4.8 4.8 0.00 0.00 0.00 9 1008.9
20260506223536 13 292 3.2 3.2 0.00 0.00 0.00 9 1008.8
20260506223125 13 292 1.6 3.2 0.00 0.00 0.00 9 1008.9
20260506222721 13 292 1.6 3.2 0.00 0.00 0.00 9 1008.9
20260506222718 13 292 1.6 3.2 0.00 0.00 0.00 9 1008.9
20260506222349 13 292 1.6 3.2 0.00 0.00 0.00 9 1008.8
20260506221912 13 180 3.2 3.2 0.00 0.00 0.00 9 1008.8
20260506221437 13 0 0.0 0.0 0.00 0.00 0.00 8 1008.8
20260506221012 14 0 0.0 0.0 0.00 0.00 0.00 8 1008.7
20260506220644 13 0 0.0 0.0 0.00 0.00 0.00 8 1008.8
20260506220557 14 0 0.0 0.0 0.00 0.00 0.00 8 1008.7
20260506220149 15 0 0.0 0.0 0.00 0.00 0.00 8 1008.8
20260506215657 15 0 0.0 0.0 0.00 0.00 0.00 8 1008.7
20260506215531 15 0 0.0 0.0 0.00 0.00 0.00 8 1008.7
20260506215342 15 0 0.0 0.0 0.00 0.00 0.00 8 1008.8
20260506214912 15 0 0.0 0.0 0.00 0.00 0.00 8 1008.7
20260506214606 14 0 0.0 0.0 0.00 0.00 0.00 8 1009.0
20260506214501 14 0 0.0 0.0 0.00 0.00 0.00 8 1008.8
20260506214034 15 0 0.0 0.0 0.00 0.00 0.00 8 1008.9
20260506213708 14 0 0.0 0.0 0.00 0.00 0.00 8 1008.8
20260506213622 14 0 0.0 0.0 0.00 0.00 0.00 8 1008.8
20260506213214 14 112 1.6 3.2 0.00 0.00 0.00 8 1008.9
20260506212726 15 0 0.0 0.0 0.00 0.00 0.00 8 1008.8
20260506212722 15 0 0.0 0.0 0.00 0.00 0.00 8 1008.8
20260506212405 15 0 0.0 0.0 0.00 0.00 0.00 8 1008.9
20260506211945 15 0 0.0 1.6 0.00 0.00 0.00 8 1008.8
20260506211526 15 0 0.0 0.0 0.00 0.00 0.00 8 1008.7
20260506211042 15 0 0.0 0.0 0.00 0.00 0.00 8 1008.7
20260506210625 15 0 0.0 1.6 0.00 0.00 0.00 8 1008.5
20260506210200 15 90 3.2 3.2 0.00 0.00 0.00 8 1008.4
20260506205705 15 112 4.8 6.4 0.00 0.00 0.00 8 1008.3
20260506205443 15 112 4.8 4.8 0.00 0.00 0.00 8 1008.3
20260506205316 15 112 4.8 4.8 0.00 0.00 0.00 8 1008.3
20260506205031 15 112 4.8 4.8 0.00 0.00 0.00 8 1008.3
20260506204548 15 112 4.8 6.4 0.00 0.00 0.00 8 1008.3
20260506204422 15 112 4.8 6.4 0.00 0.00 0.00 8 1008.2
20260506204113 15 112 4.8 6.4 0.00 0.00 0.00 8 1008.2
20260506203626 16 112 4.8 6.4 0.00 0.00 0.00 8 1008.2
20260506203554 16 112 6.4 9.7 0.00 0.00 0.00 8 1008.3
20260506203137 16 112 4.8 6.4 0.00 0.00 0.00 8 1008.1
20260506202727 16 112 4.8 9.7 0.00 0.00 0.00 7 1008.0
20260506202724 16 112 4.8 9.7 0.00 0.00 0.00 7 1008.0
20260506202432 16 135 6.4 9.7 0.00 0.00 0.00 7 1008.0
20260506201935 16 135 6.4 9.7 0.00 0.00 0.00 7 1007.9
20260506201518 16 90 4.8 9.7 0.00 0.00 0.00 7 1007.9
20260506201113 16 112 6.4 9.7 0.00 0.00 0.00 7 1007.8
20260506200646 16 90 4.8 6.4 0.00 0.00 0.00 7 1007.7
20260506200154 16 112 4.8 6.4 0.00 0.00 0.00 7 1007.6
20260506195702 16 90 6.4 12.9 0.00 0.00 0.00 7 1007.7
20260506195658 16 90 6.4 12.9 0.00 0.00 0.00 7 1007.7
20260506195605 16 90 6.4 12.9 0.00 0.00 0.00 7 1007.7
20260506195419 16 90 6.4 9.7 0.00 0.00 0.00 7 1007.6
20260506195014 16 112 9.7 14.5 0.00 0.00 0.00 7 1007.5
20260506194610 16 90 6.4 9.7 0.00 0.00 0.00 7 1007.5
20260506194132 16 112 6.4 9.7 0.00 0.00 0.00 7 1007.5
20260506193712 16 67 4.8 9.7 0.00 0.00 0.00 7 1007.3
20260506193644 16 67 8.0 9.7 0.00 0.00 0.00 7 1007.5
20260506193216 16 112 11.3 16.1 0.00 0.00 0.00 7 1007.4
20260506192728 16 90 3.2 4.8 0.00 0.00 0.00 7 1007.2
20260506192724 16 90 3.2 4.8 0.00 0.00 0.00 7 1007.2
20260506192630 16 90 9.7 14.5 0.00 0.00 0.00 7 1007.0
20260506192306 16 90 9.7 14.5 0.00 0.00 0.00 7 1007.0
20260506192232 16 90 9.7 14.5 0.00 0.00 0.00 7 1007.0
20260506191819 16 112 4.8 6.4 0.00 0.00 0.00 7 1007.0
20260506191401 17 112 1.6 4.8 0.00 0.00 0.00 7 1006.9
20260506190943 17 90 8.0 9.7 0.00 0.00 0.00 7 1007.1
20260506190511 16 67 6.4 9.7 0.00 0.00 0.00 7 1007.1
20260506190111 17 90 8.0 14.5 0.00 0.00 0.00 7 1007.0
20260506185702 17 112 11.3 14.5 0.00 0.00 0.00 7 1006.9
20260506185659 17 112 11.3 14.5 0.00 0.00 0.00 7 1006.9
20260506185519 17 112 11.3 14.5 0.00 0.00 0.00 7 1006.9
20260506185107 17 157 9.7 12.9 0.00 0.00 0.00 7 1006.9
20260506184610 17 112 12.9 19.3 0.00 0.00 0.00 7 1007.0
20260506184124 17 112 9.7 14.5 0.00 0.00 0.00 7 1007.0
20260506183633 17 90 11.3 16.1 0.00 0.00 0.00 7 1007.0
20260506183205 17 112 11.3 17.7 0.00 0.00 0.00 7 1006.9
20260506182718 17 90 12.9 16.1 0.00 0.00 0.00 7 1006.9
20260506182715 17 90 12.9 16.1 0.00 0.00 0.00 7 1006.9
20260506182429 17 112 9.7 14.5 0.00 0.00 0.00 7 1007.0
20260506182251 17 112 9.7 17.7 0.00 0.00 0.00 7 1006.9
20260506181944 17 112 12.9 16.1 0.00 0.00 0.00 7 1007.0
20260506181459 17 135 12.9 16.1 0.00 0.00 0.00 7 1006.8
20260506181356 17 90 12.9 17.7 0.00 0.00 0.00 7 1006.8
20260506181036 17 67 11.3 16.1 0.00 0.00 0.00 7 1006.9
20260506180605 17 135 9.7 16.1 0.00 0.00 0.00 7 1007.0
20260506180114 17 112 9.7 14.5 0.00 0.00 0.00 7 1006.9
20260506175701 17 90 9.7 16.1 0.00 0.00 0.00 7 1007.1
20260506175412 17 90 14.5 19.3 0.00 0.00 0.00 7 1006.9
20260506175001 17 112 17.7 20.9 0.00 0.00 0.00 7 1006.9
20260506174537 17 90 16.1 19.3 0.00 0.00 0.00 7 1006.9
20260506174426 17 112 12.9 17.7 0.00 0.00 0.00 7 1006.8
20260506174118 17 112 12.9 16.1 0.00 0.00 0.00 7 1006.9
20260506173629 17 67 9.7 16.1 0.00 0.00 0.00 7 1007.0
20260506173137 17 112 12.9 16.1 0.00 0.00 0.00 7 1006.9
20260506172716 17 135 11.3 20.9 0.00 0.00 0.00 7 1007.0
20260506172712 17 135 11.3 20.9 0.00 0.00 0.00 7 1007.0
20260506172357 17 112 14.5 19.3 0.00 0.00 0.00 7 1006.9
20260506171938 18 90 11.3 16.1 0.00 0.00 0.00 7 1006.9
20260506171549 18 112 16.1 20.9 0.00 0.00 0.00 7 1006.9
20260506171519 18 90 17.7 24.1 0.00 0.00 0.00 7 1006.9
20260506171035 18 90 9.7 14.5 0.00 0.00 0.00 7 1006.8
20260506170618 18 112 14.5 17.7 0.00 0.00 0.00 7 1006.7
20260506170153 18 67 12.9 17.7 0.00 0.00 0.00 7 1006.8
20260506165701 18 90 12.9 16.1 0.00 0.00 0.00 7 1006.9
20260506165658 18 90 12.9 16.1 0.00 0.00 0.00 7 1006.9
20260506165453 18 67 14.5 19.3 0.00 0.00 0.00 7 1006.7
20260506165042 18 112 9.7 16.1 0.00 0.00 0.00 7 1006.7
20260506164558 18 90 11.3 17.7 0.00 0.00 0.00 7 1006.9
20260506164107 18 90 12.9 20.9 0.00 0.00 0.00 7 1006.8
20260506163616 18 67 12.9 19.3 0.00 0.00 0.00 7 1006.6
20260506163128 18 90 16.1 20.9 0.00 0.00 0.00 7 1006.8
20260506162716 18 67 19.3 29.0 0.00 0.00 0.00 7 1006.8
20260506162508 18 67 20.9 30.6 0.00 0.00 0.00 7 1006.7
20260506162434 18 67 20.9 30.6 0.00 0.00 0.00 7 1006.7
20260506161938 19 67 17.7 24.1 0.00 0.00 0.00 6 1006.8
20260506161520 19 112 14.5 17.7 0.00 0.00 0.00 6 1006.7
20260506161036 19 90 17.7 24.1 0.00 0.00 0.00 6 1006.7
20260506160654 18 90 19.3 24.1 0.00 0.00 0.00 6 1006.5
20260506160619 18 90 19.3 24.1 0.00 0.00 0.00 6 1006.5
20260506160154 18 67 12.9 19.3 0.00 0.00 0.00 7 1006.8
20260506155703 18 67 9.7 16.1 0.00 0.00 0.00 7 1006.8
20260506155659 18 67 9.7 16.1 0.00 0.00 0.00 7 1006.8
20260506155525 18 67 9.7 16.1 0.00 0.00 0.00 7 1006.8
20260506155035 18 90 9.7 16.1 0.00 0.00 0.00 7 1006.9
20260506154555 18 90 14.5 19.3 0.00 0.00 0.00 7 1006.9
20260506154113 18 112 12.9 17.7 0.00 0.00 0.00 7 1006.9
20260506153641 18 135 12.9 24.1 0.00 0.00 0.00 7 1006.8
20260506153208 18 112 12.9 19.3 0.00 0.00 0.00 7 1006.7
20260506152715 18 112 16.1 20.9 0.00 0.00 0.00 7 1006.8
20260506152354 18 90 16.1 24.1 0.00 0.00 0.00 7 1006.8
20260506152008 18 135 16.1 24.1 0.00 0.00 0.00 7 1006.8
20260506151549 18 90 16.1 24.1 0.00 0.00 0.00 7 1006.9
20260506151108 18 112 19.3 30.6 0.00 0.00 0.00 7 1006.9
20260506150651 18 90 16.1 24.1 0.00 0.00 0.00 7 1006.8
20260506150620 18 90 16.1 24.1 0.00 0.00 0.00 7 1006.8
20260506150155 18 67 14.5 19.3 0.00 0.00 0.00 7 1006.9
20260506145701 18 67 19.3 24.1 0.00 0.00 0.00 7 1006.8
20260506145525 18 67 19.3 24.1 0.00 0.00 0.00 7 1006.8
20260506145507 19 112 16.1 20.9 0.00 0.00 0.00 7 1006.9
20260506145028 18 135 17.7 24.1 0.00 0.00 0.00 7 1006.7
20260506144539 19 67 11.3 16.1 0.00 0.00 0.00 7 1006.6
20260506144122 19 112 12.9 20.9 0.00 0.00 0.00 7 1006.8
20260506143621 19 45 16.1 24.1 0.00 0.00 0.00 6 1007.0
20260506143550 18 90 19.3 29.0 0.00 0.00 0.00 7 1007.0
20260506143131 18 112 17.7 24.1 0.00 0.00 0.00 7 1007.2
20260506142722 19 67 11.3 17.7 0.00 0.00 0.00 7 1007.1
20260506142719 19 67 11.3 17.7 0.00 0.00 0.00 7 1007.1
20260506142251 19 90 14.5 24.1 0.00 0.00 0.00 7 1007.2
20260506141801 19 112 16.1 24.1 0.00 0.00 0.00 7 1007.2
20260506141347 18 112 16.1 20.9 0.00 0.00 0.00 7 1007.2
20260506140941 19 90 14.5 27.4 0.00 0.00 0.00 7 1007.4
20260506140541 19 90 17.7 24.1 0.00 0.00 0.00 7 1007.3
20260506140116 18 90 14.5 17.7 0.00 0.00 0.00 7 1007.4
20260506135703 19 45 14.5 24.1 0.00 0.00 0.00 7 1007.4
20260506135525 19 45 14.5 24.1 0.00 0.00 0.00 7 1007.4
20260506135415 19 90 12.9 19.3 0.00 0.00 0.00 7 1007.2
20260506134956 18 157 17.7 24.1 0.00 0.00 0.00 6 1007.5
20260506134537 19 90 16.1 29.0 0.00 0.00 0.00 6 1007.4
20260506134053 19 90 19.3 24.1 0.00 0.00 0.00 6 1007.4
20260506133636 19 112 20.9 35.4 0.00 0.00 0.00 7 1007.5
20260506133211 19 90 17.7 24.1 0.00 0.00 0.00 7 1007.4
20260506132720 19 112 16.1 19.3 0.00 0.00 0.00 7 1007.5
20260506132716 19 112 16.1 19.3 0.00 0.00 0.00 7 1007.5
20260506132351 19 112 16.1 24.1 0.00 0.00 0.00 7 1007.5
20260506131903 20 112 20.9 29.0 0.00 0.00 0.00 7 1007.5
20260506131452 19 112 14.5 19.3 0.00 0.00 0.00 7 1007.3
20260506131409 19 135 19.3 24.1 0.00 0.00 0.00 7 1007.5
20260506131017 20 135 17.7 27.4 0.00 0.00 0.00 6 1007.4
20260506130540 19 90 25.7 35.4 0.00 0.00 0.00 7 1007.6
20260506130116 20 90 20.9 35.4 0.00 0.00 0.00 7 1007.5
20260506125707 20 112 14.5 24.1 0.00 0.00 0.00 6 1007.4
20260506125429 20 112 14.5 24.1 0.00 0.00 0.00 6 1007.6
20260506124958 20 112 16.1 29.0 0.00 0.00 0.00 6 1007.6
20260506124651 20 90 16.1 24.1 0.00 0.00 0.00 6 1007.6
20260506124508 20 67 16.1 24.1 0.00 0.00 0.00 6 1007.6
20260506124035 19 67 14.5 20.9 0.00 0.00 0.00 6 1007.4
20260506123618 20 67 19.3 24.1 0.00 0.00 0.00 6 1007.6